THORAD DELTA 1 DEB, 8173

Orbit data source: Space-Track

THORAD DELTA 1 DEB, 8173 is space debris in SSO originally from a launch on Fri, 15 Nov 1974 UTC launched from the Air Force Western Test Range (AFWTR). Debris objects in space refer to the collection of defunct objects orbiting the Earth. Examples of debris include non-operational satellites, rocket bodies, and fragments generated from explosions, collisions, or faulty payload assembly.

Loading next visibility...
THORAD DELTA 1 DEB details
Identifier
8173, 1974-089AP
Orbit
SSO
Last TLE update2 days ago
Origin
Flag of USGSFC (US)
ManufacturerUnknown
MissionSpacecraft
Bus & MotorUnknown
MassUnknown
Launch date (UTC)
1974-11-15 (50 years ago)
Launch vehicleUnknown
Launch site
Air Force Western Test Range (AFWTR)
Object type
Payload
Rocket body
Debris
Shape & HBRUnknown
Radar Cross SectionSmall (<0.1 m²)

Expand to show TLE details & history

TLE from 2 days ago
0 THORAD DELTA 1 DEB
1 08173U 74089AP  25022.20158322  .00000183  00000-0  14367-2 0  9996
2 08173 101.9310 357.2509 0109591  19.8870 352.7455 12.51787738291052
Epoch: 2025-01-22T04:50Z
Definitive object data (Epoch: 2025-01-22T04:50:16.79Z)
Latitude12.16195°
Longitude160.28707°
Altitude1,373.669 km
Speed7.212 km/s
True Right ascension23h 38m 36s
True Declination12° 05' 49"
Sunlit
Object was in daylight at TLE epoch
Visualization TLE readout
Latitude-23.62543°
Longitude-20.02936°
Altitude1,550.441 km
Speed7.052 km/s
Apparent Right ascension08h 47m 50s
Apparent Declination-53° 43' 48"
Sunlit
Object is in daylight
Visualization observer readout
Local Sidereal Time14:44:57
Azimuth223.511° SW
Elevation-30.774°
Doppler factor1
Orbital elements
Apogee altitude1,540.421 km
Perigee altitude1,368.741 km
Semi-major axis7,832.718 km
Eccentricity0.0109591
Inclination101.931°
RAAN357.2509°
Arg. of periapsis19.887°
True anomaly352.58474°
Mean anomaly352.7455°
Eccentric anomaly352.66534°
Mean motion3.13094 °/min
BSTAR0.0014367
Orbital period114.98 mins
Loading maneuver chart data...

THORAD DELTA 1 DEB Visibility forecast

Observer location: undefined°, undefined

Span
Click to sort rows by Start time (UTC) header in descending order
Start Az.
Max El. time (UTC)
Max El. Az.
Max El.
End time (UTC)
End Az.
10 mins2025-01-24 20:14:56.667Z95.91° ESE2025-01-24 20:19:56.667Z51.924° ENE21.473°2025-01-24 20:24:56.667Z9.675° NNE
13 mins2025-01-24 22:05:56.667Z167.212° S2025-01-24 22:11:56.667Z263.188° W44.513°2025-01-24 22:18:56.667Z339.594° N
5 mins2025-01-25 00:03:56.667Z254.874° W2025-01-25 00:05:56.667Z270.823° WNW12.882°2025-01-25 00:08:56.667Z294.039° NW
13 mins2025-01-25 10:08:56.667Z41.936° NE2025-01-25 10:14:56.667Z101.394° ESE30.802°2025-01-25 10:21:56.667Z160.952° S
15 mins2025-01-25 12:00:56.667Z5.397° NNE2025-01-25 12:07:56.667Z291.666° WNW38.252°2025-01-25 12:15:56.667Z223.541° SW
|